Regional Weather Roundup
Issued by NWS

Home | Current Version | Previous Version | Graphics & Text | Print | Product List | Glossary On
Versions: 1 2 3 4 5 6 7 8 9 10 11 12 13 14 15 16 17 18 19 20 21 22 23 24 25 26 27 28 29 30 31 32 33 34 35 36 37 38 39 40 41 42 43 44 45 46 47 48 49 50
000
ASUS43 KDTX 060401
RWRMI
MICHIGAN HOURLY REGIONAL WEATHER ROUNDUP
NATIONAL WEATHER SERVICE DETROIT/PONTIAC MI
1200 AM EDT WED MAY 06 2015

NOTE: "FAIR" INDICATES FEW OR NO CLOUDS BELOW 12,000 FEET WITH NO
SIGNIFICANT WEATHER AND/OR OBSTRUCTION TO VISIBILITY.

MIZ047>049-052>055-059>063-066>070-074>076-081>083-060500-
SOUTHEAST LOWER MICHIGAN

CITY           SKY/WX    TMP DP  RH WIND       PRES   REMARKS
ADRIAN         CLOUDY    51  50  96 E7        30.26F FOG
ALMA           CLOUDY    50  48  93 CALM      30.28F
ANN ARBOR      LGT RAIN  52  51  97 E6        30.26F FOG
BAD AXE        MOCLDY    42  39  88 CALM      30.30S
CARO           MOCLDY    45  44  96 CALM      30.29S
DETROIT CITY   LGT RAIN  50  48  93 NE7       30.28F FOG
DETROIT        RAIN      52  50  93 NE5       30.28F FOG
FLINT          CLOUDY    51  46  83 E3        30.28F
GROSSE ILE     LGT RAIN  52  48  87 N5        30.27R
HILLSDALE      CLOUDY    51  51 100 CALM      30.27R FOG
HOWELL         CLOUDY    52  52  99 NE5       30.27S FOG

CITY           SKY/WX    TMP DP  RH WIND       PRES   REMARKS
JACKSON        RAIN      51  50  96 SE7       30.26S FOG
LAMBERTVILLE   CLOUDY    52  50  93 E3        30.26S FOG
LANSING        CLOUDY    52  50  93 E6        30.27F
LAPEER         NOT AVBL
MASON          CLOUDY    51  49  95 E3        30.27S FOG
MONROE         CLOUDY    52  52 100 E8        30.26R FOG
PONTIAC        CLOUDY    50  45  83 E5        30.27F
PORT HOPE        N/A     38  35  89 S3        30.28F
PORT HURON     MOCLDY    46  45  93 CALM      30.30R
TRI CITIES     MOCLDY    51  46  83 N3        30.29S
MIDLAND        FAIR      49  45  86 CALM      30.27S
TROY           LGT RAIN  51  49  92 NE5       30.30F
SAGINAW HB     CLOUDY    48  46  93 CALM      30.28F
$$
MIZ043>046-050>051-056>058-064>065-071>073-077>080-060500-
SOUTHWEST LOWER MICHIGAN

CITY           SKY/WX    TMP DP  RH WIND       PRES   REMARKS
BATTLE CREEK   LGT RAIN  51  50  96 E6        30.26R FOG
BENTON HARBOR  CLOUDY    52  51  97 E6        30.22F
BIG RAPIDS     CLOUDY    54  41  62 CALM      30.26S
COLDWATER      RAIN      51  50  95 SE7       30.26S
FREMONT        FAIR      54  41  61 CALM      30.25S
HOLLAND        CLOUDY    53  50  89 E8        30.25S
GRAND RAPIDS   CLOUDY    52  48  86 E7        30.25F
IONIA          CLOUDY    53  47  81 E6        30.26S
KALAMAZOO      CLOUDY    52  49  89 SE3       30.25S FOG
LUDINGTON      CLOUDY    48  42  77 CALM      30.27S
MARSHALL       HVY RAIN  49  49  99 SE3       30.26S
MOUNT PLEASANT CLOUDY    49  42  76 N3        30.27F
MUSKEGON       CLOUDY    56  41  57 E8        30.25S
SOUTH HAVEN    CLOUDY    53  51  94 E6        30.23F FOG
$$
MIZ016>042-060500-
NORTHERN LOWER MICHIGAN

CITY           SKY/WX    TMP DP  RH WIND       PRES   REMARKS
ALPENA         PTCLDY    41  38  89 CALM      30.31S
BEAVER ISLAND  CLEAR     42  35  75 CALM      30.28S
BELLAIRE       PTCLDY    45  36  72 CALM      30.27S
CADILLAC       CLOUDY    47  30  52 CALM      30.26F
CHARLEVOIX     PTCLDY    48  34  58 SE5       30.30S
FRANKFORT      MOCLDY    49  33  53 CALM      30.26S
GAYLORD        PTCLDY    51  31  46 CALM      30.29S
GRAYLING       PTCLDY    39  32  74 CALM      30.30S
HARBOR SPRINGS PTCLDY    51  33  49 NE5       30.28S
HOUGHTON LAKE  MOCLDY    46  38  73 E3        30.29S
MANISTEE       CLOUDY    46  37  71 CALM      30.27S
OSCODA         MOCLDY    36  33  91 CALM      30.30S
PELLSTON       PTCLDY    42  32  67 CALM      30.29S
ROGERS CITY    PTCLDY    41  38  89 S3        30.31R
TRAVERSE CITY  MOCLDY    43  35  73 CALM      30.26S
$$
MIZ007>008-015-060500-
EASTERN UPPER MICHIGAN

CITY           SKY/WX    TMP DP  RH WIND       PRES   REMARKS
KINROSS        CLEAR     50  32  50 CALM      30.30S
MACKINAC ISLAN CLEAR     46  37  69 E6        30.30S
NEWBERRY       CLEAR     45  32  61 E10       30.29S
S. S. MARIE    CLEAR     47  30  51 CALM      30.29F
MUNISING         N/A     44  33  65 S5        30.27S
$$
MIZ004>006-011>014-085-060500-
CENTRAL UPPER MICHIGAN

CITY           SKY/WX    TMP DP  RH WIND       PRES   REMARKS
MANISTIQUE     CLEAR     39  32  75 CALM      30.28S
ESCANABA       CLEAR     39  34  81 CALM      30.27S
MENOMINEE      PTCLDY    48  34  57 CALM      30.26S
SAWYER-GWINN   CLEAR     47  28  47 CALM      30.27S
$$
MIZ001>003-009>011-084-060500-
WESTERN UPPER MICHIGAN

CITY           SKY/WX    TMP DP  RH WIND       PRES   REMARKS
IRON MOUNTAIN  CLEAR     45  29  53 CALM      30.25S
HOUGHTON       PTCLDY    48  28  46 E9        30.23F
COPPER HARBOR    N/A     49  28  44 SW14G20   30.22F
IRONWOOD       CLEAR     59  27  29 S7        30.18S
$$

ABBREVIATIONS USED IN REMARKS
   TC - TEMPERATURE IN CELSIUS
  WCI - WIND CHILL INDEX
   HX - HEAT INDEX
  VSB - VISIBILITY



USA.gov is the U.S. government's official web portal to all federal, state and local government web resources and services.